FW6981 Weather Reports


Display with metric or nautical units.
time (UTC)temp
F
wind
direction
speed
MPH
gust
MPH
rain 1hr
in
rain 24hr
in
rain mn
in
humidity
%
barometer
mb
20260906074546 68 0 0.0 0.0 0.00 0.00 0.00 96 1014.9
20260906073045 68 0 0.0 0.0 0.00 0.00 0.00 96 1014.8
20260906071552 68 0 0.0 0.0 0.00 0.00 0.00 96 1014.9
20260906070051 68 0 0.0 0.0 0.00 0.00 0.00 96 1015.0
20260906064546 69 0 0.0 0.0 0.00 0.00 0.00 96 1014.9
20260906063043 68 0 0.0 0.0 0.00 0.00 0.00 96 1014.9
20260906061555 68 0 0.0 0.0 0.00 0.00 0.00 96 1015.3
20260906060052 68 0 0.0 1.0 0.00 0.00 0.00 95 1015.6
20260906054549 68 0 0.0 2.0 0.00 0.00 0.00 95 1015.8
20260906053042 69 264 1.0 3.0 0.00 0.00 0.00 96 1015.9
20260906051555 69 0 0.0 0.0 0.00 0.00 0.00 95 1016.1
20260906050101 69 0 0.0 1.0 0.00 0.00 0.00 95 1016.2
20260906044544 69 0 0.0 1.0 0.00 0.00 0.00 95 1016.2
20260906043041 69 98 0.0 3.0 0.00 0.00 0.00 95 1016.1
20260906041552 69 0 0.0 2.0 0.00 0.00 0.00 95 1016.2
20260906040059 69 0 0.0 2.0 0.00 0.00 0.00 95 1016.2
20260906034545 69 100 0.0 3.0 0.00 0.00 0.00 95 1016.6
20260906033045 69 0 0.0 0.0 0.00 0.00 0.00 95 1016.1
20260906031550 70 0 0.0 1.0 0.00 0.00 0.00 94 1016.0
20260906030048 70 164 0.0 1.0 0.00 0.00 0.00 94 1016.2
20260906024550 70 0 0.0 1.0 0.00 0.00 0.00 94 1016.0
20260906023052 70 0 0.0 2.0 0.00 0.00 0.00 94 1015.9
20260906021551 70 163 0.0 2.0 0.00 0.00 0.00 93 1016.1
20260906020047 70 163 0.0 2.0 0.00 0.00 0.00 93 1015.9
20260906014615 70 163 0.0 2.0 0.00 0.00 0.00 93 1016.1
20260906013047 71 0 0.0 0.0 0.00 0.00 0.00 93 1015.8
20260906011541 71 0 0.0 2.0 0.00 0.00 0.00 92 1015.6
20260906010050 71 0 0.0 1.0 0.00 0.00 0.00 92 1015.6
20260906004556 71 0 0.0 2.0 0.00 0.00 0.00 92 1015.5
20260906003045 71 0 0.0 2.0 0.00 0.00 0.00 91 1015.1
20260906001544 72 0 0.0 2.0 0.00 0.00 0.00 91 1015.1
20260906000044 72 0 0.0 1.0 0.00 0.00 0.00 91 1015.3
20260905234546 73 0 0.0 2.0 0.00 0.00 0.00 91 1015.2
20260905233047 73 0 0.0 0.0 0.00 0.00 0.00 91 1015.4
20260905231543 73 0 0.0 0.0 0.00 0.00 0.00 91 1015.2
20260905230045 73 0 0.0 0.0 0.00 0.00 0.00 91 1015.2
20260905224545 73 0 0.0 0.0 0.00 0.00 0.00 90 1015.1
20260905223046 74 0 0.0 0.0 0.00 0.00 0.00 90 1014.9
20260905221620 74 0 0.0 2.0 0.00 0.00 0.00 90 1015.2
20260905220051 73 187 0.0 3.0 0.00 0.00 0.00 90 1015.4
20260905214547 73 196 0.0 2.0 0.00 0.00 0.00 90 1015.2
20260905213056 72 175 1.0 6.0 0.00 0.00 0.00 89 1015.6
20260905211550 72 0 0.0 3.0 0.00 0.00 0.00 90 1015.2
20260905210052 72 51 1.0 4.0 0.00 0.00 0.00 89 1015.6
20260905204554 72 0 0.0 3.0 0.00 0.00 0.00 90 1015.6
20260905203047 71 164 1.0 4.0 0.00 0.00 0.00 90 1015.7
20260905201601 71 188 1.0 3.0 0.00 0.00 0.00 88 1015.5
20260905200046 71 87 1.0 6.0 0.00 0.00 0.00 86 1016.0
20260905194549 71 78 2.0 6.0 0.00 0.00 0.00 85 1016.2
20260905193044 75 259 1.0 12.0 0.00 0.00 0.00 76 1017.1
20260905191544 82 17 3.0 13.0 0.00 0.00 0.00 61 1017.1
20260905190042 81 321 2.0 10.0 0.00 0.00 0.00 66 1016.6
20260905184554 84 94 2.0 15.0 0.00 0.00 0.00 63 1016.8
20260905183052 89 139 1.0 2.0 0.00 0.00 0.00 60 1016.6
20260905181606 92 0 0.0 9.0 0.00 0.00 0.00 49 1016.3
20260905180050 93 269 1.0 6.0 0.00 0.00 0.00 50 1016.6
20260905174543 91 199 2.0 6.0 0.00 0.00 0.00 52 1016.9
20260905173046 90 0 0.0 6.0 0.00 0.00 0.00 57 1017.1
20260905171544 92 147 3.0 9.0 0.00 0.00 0.00 55 1016.9
20260905170050 91 115 0.0 6.0 0.00 0.00 0.00 57 1017.1
20260905164545 91 139 2.0 6.0 0.00 0.00 0.00 55 1017.5
20260905163054 91 121 1.0 7.0 0.00 0.00 0.00 54 1017.7
20260905161601 90 190 1.0 7.0 0.00 0.00 0.00 58 1017.9
20260905160048 89 216 2.0 8.0 0.00 0.00 0.00 62 1017.9
20260905154544 89 128 1.0 4.0 0.00 0.00 0.00 61 1018.0
20260905153042 89 352 0.0 2.0 0.00 0.00 0.00 61 1018.3
20260905151546 88 352 0.0 3.0 0.00 0.00 0.00 64 1018.2
20260905150055 87 0 1.0 3.0 0.00 0.00 0.00 67 1018.2
20260905144552 87 15 0.0 4.0 0.00 0.00 0.00 65 1018.1
20260905143054 85 182 0.0 2.0 0.00 0.00 0.00 72 1018.1
20260905141548 84 184 1.0 3.0 0.00 0.00 0.00 75 1018.0
20260905140051 82 153 1.0 3.0 0.00 0.00 0.00 77 1018.1
20260905134549 80 244 1.0 3.0 0.00 0.00 0.00 82 1018.0
20260905133045 77 244 2.0 3.0 0.00 0.00 0.00 87 1018.2
20260905131542 76 245 1.0 3.0 0.00 0.00 0.00 90 1018.1
20260905130043 74 0 1.0 3.0 0.00 0.00 0.00 94 1018.0
20260905124550 73 0 0.0 2.0 0.00 0.00 0.00 95 1017.8
20260905123045 71 0 0.0 0.0 0.00 0.00 0.00 95 1017.9
20260905121544 70 0 0.0 0.0 0.00 0.00 0.00 95 1017.7
20260905120053 69 0 0.0 0.0 0.00 0.00 0.00 95 1017.6
20260905114550 69 0 0.0 0.0 0.00 0.00 0.00 95 1017.5
20260905113045 69 0 0.0 0.0 0.00 0.00 0.00 95 1017.3
20260905111552 69 0 0.0 0.0 0.00 0.00 0.00 95 1017.2
20260905110043 69 0 0.0 0.0 0.00 0.00 0.00 95 1016.8
20260905104608 69 0 0.0 0.0 0.00 0.00 0.00 95 1016.9
20260905103052 69 0 0.0 0.0 0.00 0.00 0.00 95 1016.9
20260905101546 69 0 0.0 0.0 0.00 0.00 0.00 95 1016.8
20260905100046 69 0 0.0 0.0 0.00 0.00 0.00 95 1016.7
20260905094541 69 0 0.0 0.0 0.00 0.00 0.00 95 1016.7
20260905093052 70 0 0.0 0.0 0.00 0.00 0.00 94 1016.8
20260905091605 70 0 0.0 0.0 0.00 0.00 0.00 94 1016.7
20260905090041 70 0 0.0 0.0 0.00 0.00 0.00 94 1016.7
20260905084604 70 0 0.0 0.0 0.00 0.00 0.00 94 1016.8
20260905083045 70 0 0.0 0.0 0.00 0.00 0.00 94 1016.9
20260905081549 70 0 0.0 2.0 0.00 0.00 0.00 94 1016.9
20260905080044 70 0 0.0 2.0 0.00 0.00 0.00 94 1017.0